Home > Weather > Modena > Past weeks

Flag for Italy Past Weather in Modena, Italy — Yesterday and Last 2 Weeks

Now
82 °F

Passing clouds.


Feels Like: 83 °F
Forecast: 66 / 83 °F
Wind: 8 mph from Northwest

Location: Bologna / Borgo Panigale

Current Time: Aug 29, 2016 at 11:17:44 AM

Latest Report: Aug 29, 2016 at 10:50 AM


Visibility: N/A

Pressure: 30.01 "Hg

Humidity: 51%

Dew Point: 63 °F

Location of ModenaLocation

Past Weather in Modena — Graph

°F

Modena Temperature Yesterday

Maximum temperature yesterday: 93 °F (at 5:20 PM)
Minimum temperature yesterday: 66 °F (at 6:20 AM)
Average temperature yesterday: 79 °F

High & Low Weather Summary for the Past Weeks

 TemperatureHumidityPressure
High93 °F (Aug 15, 3:20 PM)100% (Aug 18, 7:20 AM)30.27 "Hg (Aug 18, 7:20 AM)
Low57 °F (Aug 23, 5:50 AM)26% (Aug 28, 4:50 PM)29.77 "Hg (Aug 17, 3:20 PM)
Average76 °F59%30.03 "Hg
* Reported Aug 14 9:20 AM — Aug 29 9:50 AM, Modena, Weather by CustomWeather, © 2016

Note: Actual official high and low records may vary slightly from our data, if they occured in-between our weather recording intervals... More about our weather records

Advertising

Modena Weather History for the Previous 24 Hours

Scroll right to see more
 ConditionsComfort  
Time TempWeatherWind HumidityBarometerVisibility
9:50 AM
Mon, Aug 29
81 °FPassing clouds.9 mph51%30.01 "HgN/A
9:20 AM79 °FSunny.9 mph54%30.01 "Hg10 mi
8:50 AM77 °FSunny.5 mph57%30.01 "Hg10 mi
8:20 AM75 °FPassing clouds.3 mph57%30.01 "HgN/A
7:50 AM73 °FSunny.6 mph61%30.01 "Hg10 mi
7:20 AM72 °FClear.7 mph61%30.01 "Hg10 mi
6:50 AM70 °FPassing clouds.7 mph64%30.01 "HgN/A
6:20 AM70 °FClear.9 mph64%30.01 "Hg10 mi
5:50 AM70 °FClear.7 mph64%30.01 "Hg10 mi
5:20 AM70 °FClear.6 mph64%30.01 "Hg10 mi
4:50 AM70 °FClear.7 mph64%30.01 "Hg10 mi
4:20 AM72 °FPassing clouds.6 mph61%30.01 "HgN/A
3:50 AM72 °FPassing clouds.3 mph57%30.01 "HgN/A
3:20 AM73 °FClear.7 mph53%30.01 "Hg10 mi
2:50 AM73 °FClear.8 mph53%30.01 "Hg10 mi
2:20 AM75 °FClear.8 mph50%30.01 "Hg10 mi
1:50 AM75 °FClear.7 mph47%30.01 "Hg10 mi
1:20 AM75 °FClear.8 mph50%30.04 "Hg10 mi
12:50 AM75 °FClear.6 mph50%30.04 "Hg10 mi
12:20 AM77 °FClear.6 mph47%30.04 "Hg10 mi
11:50 PM
Sun, Aug 28
79 °FClear.8 mph45%30.04 "Hg10 mi
11:20 PM79 °FPassing clouds.3 mph45%30.01 "HgN/A
10:50 PM81 °FClear.13 mph42%30.01 "Hg10 mi
10:20 PM81 °FClear.8 mph45%30.01 "Hg10 mi
9:50 PM81 °FClear.7 mph48%30.01 "Hg10 mi
9:20 PM79 °FClear.6 mph54%30.01 "Hg10 mi
8:50 PM81 °FSunny.9 mph51%30.01 "Hg10 mi
8:20 PM82 °FSunny.12 mph45%29.98 "Hg10 mi
7:50 PM84 °FSunny.9 mph45%29.98 "Hg10 mi
7:20 PM86 °FSunny.10 mph43%29.98 "Hg10 mi
6:50 PM90 °FSunny.7 mph31%29.98 "Hg10 mi
6:20 PM91 °FSunny.6 mph28%29.98 "Hg10 mi
5:50 PM91 °FSunny.6 mph28%29.98 "Hg10 mi
5:20 PM93 °FPassing clouds.6 mph26%30.01 "HgN/A
4:50 PM91 °FPassing clouds.6 mph26%30.01 "HgN/A
4:20 PM91 °FSunny.3 mph28%30.01 "Hg10 mi
3:50 PM91 °FSunny.6 mph30%30.01 "Hg10 mi
3:20 PM91 °FSunny.3 mph30%30.01 "Hg10 mi
2:50 PM91 °FSunny.3 mph32%30.04 "Hg10 mi
2:20 PM90 °FSunny.5 mph31%30.04 "Hg10 mi
1:50 PM88 °FSunny.3 mph33%30.04 "Hg10 mi
11:50 AM86 °FSunny.2 mph43%30.07 "Hg10 mi
11:20 AM84 °FPassing clouds.3 mph43%30.09 "HgN/A
Weather by CustomWeather, © 2016

See weather overviewHow to use our weather pages